Flag for Canada Weather past 2 weeks in Regina, Saskatchewan, Canada

Now
37 °F

Passing clouds.


Feels Like: 27 °F
Forecast: 27 / 35 °F
Wind: 18 mph from West

Location: Regina Weather Station

Current Time: Jan 25, 2015 at 11:08:10 PM

Latest Report: Jan 25, 2015 at 10:00 PM


Visibility: 15 mi

Pressure: 29.83 "Hg

Humidity: 81%

Dew point: 32 °F

Location of ReginaLocation

Historic Weather in Regina — Graph

°F

Regina temperature yesterday

Maximum temperature yesterday: 37 °F (at 4:00 PM)
Minimum temperature yesterday: 21 °F (at 3:00 AM)
Average temperature yesterday: 31 °F

Past Weeks' High & Low Weather Summary

 TemperatureHumidityPressure
High39 °F (Jan 22, 8:00 PM)100% (Jan 15, 6:00 PM)30.74 "Hg (Jan 15, 6:00 PM)
Low-20 °F (Jan 11, 8:00 AM)65% (Jan 11, 2:00 PM)29.43 "Hg (Jan 16, 6:00 PM)
Average20 °F87%30.04 "Hg
* Reported Jan 10 10:00 PM — Jan 25 10:00 PM, Regina, Weather by CustomWeather, © 2014

Note: Actual official high and low records may vary slightly from our data, if they occured in-between our weather recording intervals... More about our weather records

Advertising

Regina weather history for previous 24 hours

 ConditionsComfort  
Time TempWeatherWind HumidityBarometerVisibility
10:00 PM
Jan 25
37 °FPassing clouds.18 mph81%29.83 "Hg15 mi
9:00 PM37 °FPassing clouds.18 mph81%29.82 "Hg15 mi
8:00 PM37 °FPassing clouds.20 mph81%29.81 "Hg15 mi
7:00 PM39 °FPassing clouds.16 mph81%29.80 "Hg15 mi
6:00 PM36 °FPassing clouds.13 mph87%29.79 "Hg15 mi
5:00 PM37 °FScattered clouds.7 mph81%29.79 "Hg15 mi
4:00 PM36 °FScattered clouds.12 mph87%29.78 "Hg15 mi
3:00 PM36 °FPartly sunny.15 mph87%29.79 "Hg15 mi
2:00 PM34 °FMostly cloudy.14 mph93%29.86 "Hg15 mi
1:00 PM32 °FPartly sunny.12 mph100%29.89 "Hg15 mi
12:00 PM28 °FMore clouds than sun.12 mph100%29.92 "Hg8 mi
11:00 AM27 °FIce fog.10 mph100%29.97 "Hg3 mi
10:47 AM27 °FIce fog.10 mph93%29.97 "Hg3 mi
10:00 AM25 °FIce fog.12 mph100%29.98 "Hg1 mi
9:49 AM25 °FIce fog.10 mph100%30.00 "Hg1 mi
9:00 AM25 °FIce fog.8 mph100%30.01 "Hg1 mi
8:00 AM25 °FIce fog.8 mph100%30.01 "Hg1 mi
7:00 AM25 °FIce fog.7 mph93%30.02 "Hg1 mi
6:00 AM23 °FIce fog.5 mph100%30.03 "Hg0 mi
5:00 AM21 °FIce fog.2 mph100%30.05 "Hg1 mi
4:45 AM21 °FIce fog.3 mph100%30.05 "Hg1 mi
4:00 AM21 °FLight snow. Ice fog.5 mph100%30.07 "Hg4 mi
3:00 AM21 °FLow clouds.9 mph93%30.11 "Hg15 mi
2:00 AM21 °FPassing clouds.9 mph86%30.06 "Hg15 mi
1:00 AM23 °FPassing clouds.20 mph93%30.06 "Hg15 mi
12:00 AM28 °FLow clouds.26 mph93%30.02 "Hg15 mi
11:00 PM
Jan 24
32 °FOvercast.23 mph93%29.98 "Hg15 mi
Weather by CustomWeather, © 2014

See weather overviewHow to use our weather pages